This demonstration page uses our WeatherBlox Daily Observations layout. Learn more.

Left ArrowRight Arrow

39.29038, -76.61219

Hourly Observations for August 9, 2015

Temp ( °F °C ) Dew Point ( °F °C ) Humidity (%) Winds ( mph kmh ) Pressure ( in mb ) Visibility ( mi km ) Precip ( " mm )
12:54 am 00:54 Partly Cloudy 74 23.3 62 16.7 67 67 undefined N/A 29.98 1015 N/A 0.00 0.00
1:54 am 01:54 undefined 73 22.8 62 16.7 69 69 undefined N/A 29.99 1016 N/A 0.00 0.00
2:54 am 02:54 undefined 73 22.8 62 16.7 69 69 undefined N/A 30.00 1016 N/A 0.00 0.00
3:54 am 03:54 undefined 73 22.8 63 17.2 71 71 undefined N/A 29.99 1016 N/A 0.00 0.00
4:54 am 04:54 Partly Cloudy 73 22.8 62 16.7 69 69 undefined N/A 29.99 1016 N/A 0.00 0.00
5:54 am 05:54 Partly Cloudy 73 22.8 61 16.1 66 66 undefined N/A 29.99 1016 N/A 0.00 0.00
6:54 am 06:54 undefined 73 22.8 60 15.6 64 64 undefined N/A 30.00 1016 N/A 0.00 0.00
7:54 am 07:54 Partly Cloudy 75 23.9 60 15.6 60 60 undefined N/A 30.00 1016 N/A 0.00 0.00
8:54 am 08:54 undefined 78 25.6 57 13.9 48 48 undefined N/A 30.01 1016 N/A 0.00 0.00
9:54 am 09:54 Mostly Sunny 78 25.6 58 14.4 50 50 undefined N/A 30.01 1016 N/A 0.00 0.00
10:54 am 10:54 Mostly Cloudy 72 22.2 64 17.8 76 76 undefined N/A 29.88 1012 N/A 0.00 0.00
11:54 am 11:54 undefined 81 27.2 60 15.6 49 49 undefined N/A 29.98 1015 N/A 0.00 0.00
12:54 pm 12:54 Partly Cloudy 71 21.7 55 12.8 57 57 undefined N/A 29.04 983 N/A 0.00 0.00
1:54 pm 13:54 undefined 85 29.4 60 15.6 43 43 undefined N/A 29.98 1015 N/A 0.00 0.00
2:54 pm 14:54 Mostly Sunny 85 29.4 62 16.7 46 46 undefined N/A 29.99 1016 N/A 0.00 0.00
3:54 pm 15:54 undefined 85 29.4 62 16.7 46 46 undefined N/A 29.98 1015 N/A 0.00 0.00
4:54 pm 16:54 Mostly Cloudy 85 29.4 62 16.7 46 46 undefined N/A 29.97 1015 N/A 0.00 0.00
5:54 pm 17:54 undefined 83 28.3 63 17.2 51 51 undefined N/A 29.97 1015 N/A 0.00 0.00
6:54 pm 18:54 undefined 82 27.8 61 16.1 49 49 undefined N/A 29.97 1015 N/A 0.00 0.00
7:54 pm 19:54 Mostly Cloudy 81 27.2 61 16.1 51 51 undefined N/A 30.02 1017 N/A 0.00 0.00
8:54 pm 20:54 Mostly Cloudy 81 27.2 61 16.1 51 51 undefined N/A 29.99 1016 N/A 0.00 0.00
9:54 pm 21:54 undefined 81 27.2 64 17.8 57 57 undefined N/A 30.00 1016 N/A 0.00 0.00
10:54 pm 22:54 undefined 76 24.4 68 20 77 77 undefined N/A 30.02 1017 N/A 0.00 0.00
11:54 pm 23:54 undefined 76 24.4 66 18.9 72 72 undefined N/A 30.02 1017 N/A 0.00 0.00

Powered by AerisWeather